TimeMDT,TemperatureF,Dew PointF,Humidity,Sea Level PressureIn,VisibilityMPH,Wind Direction,Wind SpeedMPH,Gust SpeedMPH,PrecipitationIn,Events,Conditions,WindDirDegrees,DateUTC
12:15 AM,42.8,35.6,76,30.21,10.0,East,16.1,-,N/A,,Overcast,90,2012-10-06 06:15:00
12:53 AM,42.1,35.1,76,30.00,10.0,East,19.6,24.2,N/A,,Overcast,90,2012-10-06 06:53:00
1:53 AM,39.9,34.0,79,30.02,10.0,East,16.1,-,N/A,,Overcast,90,2012-10-06 07:53:00
2:53 AM,37.0,34.0,89,30.03,6.0,East,11.5,-,N/A,,Overcast,100,2012-10-06 08:53:00
3:07 AM,37.4,33.8,87,30.21,4.0,East,11.5,-,N/A,,Overcast,80,2012-10-06 09:07:00
3:41 AM,35.6,33.8,93,30.20,2.0,ESE,10.4,-,N/A,,Overcast,110,2012-10-06 09:41:00
3:53 AM,36.0,34.0,93,30.00,2.5,East,11.5,-,N/A,,Overcast,100,2012-10-06 09:53:00
4:05 AM,35.6,33.8,93,30.19,1.2,East,9.2,-,N/A,,Overcast,90,2012-10-06 10:05:00
4:16 AM,35.6,33.8,93,30.19,0.8,East,10.4,-,N/A,,Mist,100,2012-10-06 10:16:00
4:53 AM,36.0,35.1,97,30.00,0.5,ESE,8.1,-,N/A,Fog,Fog,110,2012-10-06 10:53:00
5:20 AM,35.6,35.6,100,30.19,0.2,ESE,8.1,-,N/A,Fog,Fog,110,2012-10-06 11:20:00
5:53 AM,37.0,35.1,93,30.01,0.2,ENE,3.5,-,N/A,Fog,Fog,70,2012-10-06 11:53:00
6:53 AM,37.0,36.0,96,30.01,0.5,SSE,8.1,-,N/A,Fog,Fog,150,2012-10-06 12:53:00
7:08 AM,37.4,35.6,93,30.19,0.2,SE,8.1,-,N/A,Fog,Fog,130,2012-10-06 13:08:00
7:53 AM,37.9,37.0,97,30.04,0.2,SSE,9.2,-,N/A,Fog,Fog,160,2012-10-06 13:53:00
8:53 AM,39.0,37.0,93,30.04,0.2,SSE,12.7,-,N/A,Fog,Fog,160,2012-10-06 14:53:00
9:07 AM,39.2,37.4,93,30.20,0.5,SE,8.1,-,N/A,Fog,Fog,140,2012-10-06 15:07:00
9:48 AM,39.2,37.4,93,30.20,1.2,SE,8.1,-,N/A,,Overcast,140,2012-10-06 15:48:00
9:53 AM,39.9,37.9,93,30.09,2.0,SE,5.8,-,N/A,,Overcast,140,2012-10-06 15:53:00
10:01 AM,39.2,37.4,93,30.19,6.0,SE,6.9,-,N/A,,Overcast,140,2012-10-06 16:01:00
10:49 AM,46.4,39.2,76,30.19,10.0,SE,5.8,-,N/A,,Mostly Cloudy,140,2012-10-06 16:49:00
10:53 AM,46.9,39.0,74,30.06,10.0,SE,9.2,-,N/A,,Mostly Cloudy,140,2012-10-06 16:53:00
11:19 AM,48.2,39.2,71,30.18,10.0,SE,5.8,-,N/A,,Scattered Clouds,140,2012-10-06 17:19:00
11:53 AM,51.1,39.0,63,30.03,10.0,South,11.5,-,N/A,,Clear,170,2012-10-06 17:53:00
12:53 PM,57.9,39.9,51,29.98,10.0,SE,10.4,-,N/A,,Clear,130,2012-10-06 18:53:00
1:53 PM,59.0,39.0,48,29.95,10.0,SSE,9.2,-,N/A,,Clear,150,2012-10-06 19:53:00
2:53 PM,61.0,39.9,46,29.94,10.0,SSE,11.5,-,N/A,,Clear,150,2012-10-06 20:53:00
3:53 PM,54.0,39.0,57,29.99,10.0,East,17.3,-,N/A,,Clear,100,2012-10-06 21:53:00
4:37 PM,44.6,37.4,76,30.11,10.0,East,17.3,-,N/A,,Mostly Cloudy,100,2012-10-06 22:37:00
4:45 PM,42.8,37.4,81,30.11,10.0,East,19.6,25.3,N/A,,Mostly Cloudy,90,2012-10-06 22:45:00
4:53 PM,42.1,37.0,82,30.06,10.0,East,17.3,25.3,N/A,,Overcast,100,2012-10-06 22:53:00
5:29 PM,39.2,37.4,93,30.13,1.5,East,18.4,25.3,N/A,,Overcast,100,2012-10-06 23:29:00
5:34 PM,39.2,35.6,87,30.13,0.2,ESE,19.6,26.5,N/A,Fog,Fog,110,2012-10-06 23:34:00
5:42 PM,39.2,37.4,93,30.14,0.2,East,19.6,26.5,N/A,Fog,Fog,100,2012-10-06 23:42:00
5:53 PM,39.0,36.0,89,30.09,0.2,East,17.3,27.6,N/A,Fog,Fog,100,2012-10-06 23:53:00
6:53 PM,37.0,36.0,96,30.13,0.2,East,18.4,27.6,0.00,Fog-Rain,Light Rain,100,2012-10-07 00:53:00
7:51 PM,35.6,33.8,93,30.19,0.5,East,24.2,29.9,0.00,Fog,Fog,90,2012-10-07 01:51:00
7:53 PM,35.1,34.0,96,30.15,0.5,East,24.2,29.9,0.00,Fog,Fog,90,2012-10-07 01:53:00
8:10 PM,35.6,33.8,93,30.19,1.0,East,20.7,28.8,N/A,,Mist,80,2012-10-07 02:10:00
8:19 PM,33.8,33.8,100,30.19,3.0,East,19.6,31.1,N/A,,Overcast,90,2012-10-07 02:19:00
8:53 PM,34.0,30.9,89,30.18,10.0,East,21.9,28.8,N/A,,Overcast,100,2012-10-07 02:53:00
9:34 PM,35.6,30.2,81,30.22,10.0,East,18.4,-,N/A,,Overcast,90,2012-10-07 03:34:00
9:53 PM,35.1,30.0,82,30.19,10.0,East,16.1,24.2,N/A,,Overcast,100,2012-10-07 03:53:00
10:53 PM,34.0,28.0,79,30.16,10.0,East,18.4,25.3,N/A,,Overcast,100,2012-10-07 04:53:00
11:53 PM,34.0,27.0,75,30.15,10.0,East,16.1,-,N/A,,Overcast,90,2012-10-07 05:53:00